Mobile, AL

9:05 PM CST on January 21, 2017 (GMT -0600)
Mobile Regional Airport

Weather History for KMOB - November, 2011

Change the Weather History Date:

Tuesday, November 8, 2011

  Actual Average Record
Temperature  
Mean Temperature 69 °F 62 °F  
Max Temperature 79 °F 73 °F 83 °F (1986)
Min Temperature 58 °F 51 °F 28 °F (1951)
Degree Days  
Heating Degree Days 0 5  
Month to date heating degree days 38 35  
Since 1 July heating degree days 130 90  
Cooling Degree Days 4 2  
Month to date cooling degree days 6 17  
Year to date cooling degree days 2794 2479  
Growing Degree Days 18 (Base 50)    
Moisture  
Dew Point 61 °F    
Average Humidity 76    
Maximum Humidity 97    
Minimum Humidity 54    
Precipitation  
Precipitation 0.00 in 0.18 in 3.11 in (1926)
Month to date precipitation 0.05 1.36  
Year to date precipitation 45.70 57.32  
Snow  
Snow 0.00 in 0.00 in 0.00 in (2002)
Month to date snowfall 0.0 0.0  
Since 1 July snowfall 0.0 0.0  
Snow Depth 0.00 in    
Sea Level Pressure  
Sea Level Pressure 30.10 in    
Wind  
Wind Speed 9 mph (ESE)    
Max Wind Speed 20 mph    
Max Gust Speed 24 mph    
Visibility 10 miles    
Events      
T = Trace of Precipitation, MM = Missing Value Source: NWS Daily Summary

Daily Weather History Graph

Daily Weather History Graph

Search for Another Location

Airport or City:

Trip Planner

Search our weather history database for the weather conditions in past years. The results will help you decide how hot, cold, wet, or windy it might be!

Date:

Astronomy

Nov. 08, 2011 Rise Set
Actual Time 6:13 AM CST 4:59 PM CST
Civil Twilight 5:47 AM CST 5:24 PM CST
Nautical Twilight 5:19 AM CST 5:53 PM CST
Astronomical Twilight 4:50 AM CST 6:22 PM CST
Moon 3:36 PM CST (11/8) 4:16 AM CST (11/8)
Length of Visible Light 11h 37m
Length of Day
10h 46m
Waxing Gibbous, 96% of the Moon is Illuminated
Nov 8
Waxing Gibbous
Nov 10
Full
Nov 18
Last Quarter
Nov 25
New
Dec 2
First Quarter

Hourly Weather History & Observations

Time (CST) Temp. Dew Point Humidity Pressure Visibility Wind Dir Wind Speed Gust Speed Precip Events Conditions
12:56 AM 62.1 °F 59.0 °F 90% 30.11 in 10.0 mi ESE 9.2 mph - N/A   Partly Cloudy
1:56 AM 63.0 °F 59.0 °F 87% 30.10 in 10.0 mi ESE 6.9 mph - N/A   Partly Cloudy
2:56 AM 61.0 °F 59.0 °F 93% 30.11 in 10.0 mi Calm Calm - N/A   Partly Cloudy
3:56 AM 60.1 °F 57.9 °F 93% 30.11 in 10.0 mi East 3.5 mph - N/A   Partly Cloudy
4:56 AM 60.1 °F 57.9 °F 93% 30.12 in 10.0 mi ENE 5.8 mph - N/A   Partly Cloudy
5:56 AM 59.0 °F 57.9 °F 96% 30.13 in 10.0 mi ENE 5.8 mph - N/A   Partly Cloudy
6:56 AM 61.0 °F 59.0 °F 93% 30.14 in 10.0 mi East 4.6 mph - N/A   Partly Cloudy
7:56 AM 66.0 °F 62.1 °F 87% 30.14 in 10.0 mi East 11.5 mph - N/A   Partly Cloudy
8:56 AM 71.1 °F 62.1 °F 73% 30.16 in 10.0 mi ESE 13.8 mph - N/A   Scattered Clouds
9:56 AM 75.0 °F 63.0 °F 66% 30.15 in 10.0 mi ESE 13.8 mph 21.9 mph N/A   Scattered Clouds
10:21 AM 73.4 °F 62.6 °F 69% 30.15 in 10.0 mi ESE 17.3 mph 24.2 mph N/A   Mostly Cloudy
10:56 AM 77.0 °F 62.1 °F 60% 30.14 in 10.0 mi ESE 15.0 mph - N/A   Mostly Cloudy
11:20 AM 77.0 °F 60.8 °F 57% 30.14 in 10.0 mi SE 18.4 mph - N/A   Mostly Cloudy
11:56 AM 75.0 °F 60.1 °F 60% 30.13 in 10.0 mi SE 12.7 mph - N/A   Mostly Cloudy
12:56 PM 78.1 °F 61.0 °F 56% 30.10 in 10.0 mi SE 10.4 mph 17.3 mph N/A   Mostly Cloudy
1:56 PM 77.0 °F 60.1 °F 56% 30.07 in 10.0 mi SE 13.8 mph - N/A   Mostly Cloudy
2:56 PM 75.0 °F 60.1 °F 60% 30.07 in 10.0 mi SE 11.5 mph - N/A   Mostly Cloudy
3:56 PM 73.9 °F 60.1 °F 62% 30.06 in 10.0 mi SE 12.7 mph - N/A   Mostly Cloudy
4:56 PM 71.1 °F 61.0 °F 70% 30.06 in 10.0 mi SE 11.5 mph - N/A   Mostly Cloudy
5:56 PM 70.0 °F 61.0 °F 73% 30.07 in 10.0 mi SSE 8.1 mph - N/A   Overcast
6:56 PM 70.0 °F 62.1 °F 76% 30.08 in 10.0 mi SE 10.4 mph - N/A   Overcast
7:56 PM 69.1 °F 62.1 °F 78% 30.07 in 10.0 mi ESE 11.5 mph - N/A   Mostly Cloudy
8:56 PM 66.2 °F 62.6 °F 88% 30.08 in 10.0 mi SE 6.9 mph - N/A   Scattered Clouds
9:56 PM 66.0 °F 62.1 °F 87% 30.06 in 10.0 mi SE 6.9 mph - N/A   Partly Cloudy
10:56 PM 66.9 °F 63.0 °F 87% 30.06 in 10.0 mi SE 5.8 mph - N/A   Scattered Clouds
11:56 PM 64.4 °F 62.6 °F 94% 30.07 in 10.0 mi Calm Calm - N/A   Mostly Cloudy